Time,TemperatureF,DewpointF,PressureIn,WindDirection,WindDirectionDegrees,WindSpeedMPH,WindSpeedGustMPH,Humidity,HourlyPrecipIn,Conditions,Clouds,dailyrainin,SolarRadiationWatts/m^2,SoftwareType,DateUTC
2013-06-18 00:12:00,69.6,66.0,29.74,East,90,3.0,-999.0,89,-99.99,,,0.00,0,weatherlink.com 1.10,2013-06-17 22:12:00,
2013-06-18 00:27:00,69.5,67.0,29.74,East,96,3.0,-999.0,90,-99.99,,,0.00,0,weatherlink.com 1.10,2013-06-17 22:27:00,
2013-06-18 00:42:00,69.5,67.0,29.73,East,98,4.0,-999.0,90,-99.99,,,0.00,0,weatherlink.com 1.10,2013-06-17 22:42:00,
2013-06-18 00:58:00,69.3,66.0,29.75,WSW,248,7.0,-999.0,90,-99.99,,,0.00,0,weatherlink.com 1.10,2013-06-17 22:58:00,
2013-06-18 01:12:00,69.5,67.0,29.74,South,184,4.0,-999.0,90,-99.99,,,0.00,0,weatherlink.com 1.10,2013-06-17 23:12:00,
2013-06-18 01:27:00,69.6,67.0,29.75,South,170,5.0,-999.0,91,-99.99,,,0.00,0,weatherlink.com 1.10,2013-06-17 23:27:00,
2013-06-18 01:43:00,69.6,67.0,29.76,SSE,156,9.0,-999.0,90,-99.99,,,0.00,0,weatherlink.com 1.10,2013-06-17 23:43:00,
2013-06-18 01:58:00,69.2,67.0,29.77,SSW,196,6.0,-999.0,91,-99.99,,,0.00,0,weatherlink.com 1.10,2013-06-17 23:58:00,
2013-06-18 02:13:00,68.9,66.0,29.76,South,190,1.0,-999.0,91,-99.99,,,0.00,0,weatherlink.com 1.10,2013-06-18 00:13:00,
2013-06-18 02:29:00,68.8,66.0,29.76,South,185,0.0,-999.0,91,-99.99,,,0.00,0,weatherlink.com 1.10,2013-06-18 00:29:00,
2013-06-18 02:43:00,68.9,66.0,29.75,South,188,0.0,-999.0,91,-99.99,,,0.00,0,weatherlink.com 1.10,2013-06-18 00:43:00,
2013-06-18 02:58:00,69.1,66.0,29.76,WSW,244,4.0,-999.0,91,-99.99,,,0.00,0,weatherlink.com 1.10,2013-06-18 00:58:00,
2013-06-18 03:14:00,69.3,67.0,29.75,WSW,254,0.0,-999.0,91,-99.99,,,0.00,0,weatherlink.com 1.10,2013-06-18 01:14:00,
2013-06-18 03:28:00,69.3,67.0,29.75,West,279,11.0,-999.0,91,-99.99,,,0.00,0,weatherlink.com 1.10,2013-06-18 01:28:00,
2013-06-18 03:44:00,69.3,67.0,29.73,WNW,296,6.0,-999.0,91,-99.99,,,0.00,0,weatherlink.com 1.10,2013-06-18 01:44:00,
2013-06-18 03:59:00,69.2,67.0,29.73,NW,306,4.0,-999.0,91,-99.99,,,0.00,0,weatherlink.com 1.10,2013-06-18 01:59:00,
2013-06-18 04:14:00,69.1,66.0,29.72,NW,311,3.0,-999.0,91,-99.99,,,0.00,0,weatherlink.com 1.10,2013-06-18 02:14:00,
2013-06-18 04:30:00,69.0,66.0,29.72,North,355,3.0,-999.0,91,-99.99,,,0.00,0,weatherlink.com 1.10,2013-06-18 02:30:00,
2013-06-18 04:45:00,68.7,66.0,29.73,NE,46,2.0,-999.0,91,-99.99,,,0.00,0,weatherlink.com 1.10,2013-06-18 02:45:00,
2013-06-18 05:01:00,68.6,66.0,29.73,NE,46,1.0,-999.0,91,-99.99,,,0.00,0,weatherlink.com 1.10,2013-06-18 03:01:00,
2013-06-18 05:15:00,68.4,66.0,29.73,NE,47,0.0,-999.0,91,-99.99,,,0.00,0,weatherlink.com 1.10,2013-06-18 03:15:00,
2013-06-18 05:30:00,68.3,66.0,29.73,NE,51,0.0,-999.0,91,-99.99,,,0.00,0,weatherlink.com 1.10,2013-06-18 03:30:00,
2013-06-18 05:46:00,68.2,66.0,29.73,East,83,3.0,-999.0,91,-99.99,,,0.00,0,weatherlink.com 1.10,2013-06-18 03:46:00,
2013-06-18 06:01:00,68.2,66.0,29.72,East,85,1.0,-999.0,91,-99.99,,,0.00,0,weatherlink.com 1.10,2013-06-18 04:01:00,
2013-06-18 06:16:00,68.0,65.0,29.74,East,96,0.0,-999.0,91,-99.99,,,0.00,0,weatherlink.com 1.10,2013-06-18 04:16:00,
2013-06-18 06:31:00,67.9,65.0,29.74,East,96,0.0,-999.0,91,-99.99,,,0.00,9,weatherlink.com 1.10,2013-06-18 04:31:00,
2013-06-18 06:47:00,67.8,65.0,29.73,East,92,0.0,-999.0,91,-99.99,,,0.00,19,weatherlink.com 1.10,2013-06-18 04:47:00,
2013-06-18 07:01:00,67.7,65.0,29.72,ESE,102,3.0,-999.0,91,-99.99,,,0.00,26,weatherlink.com 1.10,2013-06-18 05:01:00,
2013-06-18 07:17:00,67.6,65.0,29.74,South,169,10.0,-999.0,91,-99.99,,,0.00,32,weatherlink.com 1.10,2013-06-18 05:17:00,
2013-06-18 07:33:00,67.8,65.0,29.75,SSE,157,4.0,-999.0,91,-99.99,,,0.00,40,weatherlink.com 1.10,2013-06-18 05:33:00,
2013-06-18 07:47:00,68.3,66.0,29.75,SSE,153,2.0,-999.0,91,-99.99,,,0.00,42,weatherlink.com 1.10,2013-06-18 05:47:00,
2013-06-18 08:03:00,68.7,66.0,29.75,SSE,152,4.0,-999.0,91,-99.99,,,0.00,70,weatherlink.com 1.10,2013-06-18 06:03:00,
2013-06-18 08:18:00,69.1,66.0,29.75,SSE,157,2.0,-999.0,91,-99.99,,,0.00,63,weatherlink.com 1.10,2013-06-18 06:18:00,
2013-06-18 08:33:00,69.4,67.0,29.76,SSE,150,5.0,-999.0,91,-99.99,,,0.00,83,weatherlink.com 1.10,2013-06-18 06:33:00,
2013-06-18 08:48:00,69.4,67.0,29.77,SE,146,10.0,-999.0,91,-99.99,,,0.00,107,weatherlink.com 1.10,2013-06-18 06:48:00,
2013-06-18 09:04:00,69.6,67.0,29.77,South,186,2.0,-999.0,90,-99.99,,,0.00,155,weatherlink.com 1.10,2013-06-18 07:04:00,
2013-06-18 09:18:00,70.2,67.0,29.77,SSE,164,6.0,-999.0,88,-99.99,,,0.00,76,weatherlink.com 1.10,2013-06-18 07:18:00,
2013-06-18 09:34:00,70.0,66.0,29.77,SSE,166,5.0,-999.0,88,-99.99,,,0.00,77,weatherlink.com 1.10,2013-06-18 07:34:00,
2013-06-18 09:49:00,70.2,67.0,29.77,SSE,164,3.0,-999.0,89,-99.99,,,0.00,183,weatherlink.com 1.10,2013-06-18 07:49:00,
2013-06-18 10:04:00,70.3,66.0,29.77,South,173,4.0,-999.0,87,-99.99,,,0.00,125,weatherlink.com 1.10,2013-06-18 08:04:00,
2013-06-18 10:20:00,70.1,66.0,29.77,South,181,8.0,-999.0,86,-99.99,,,0.00,146,weatherlink.com 1.10,2013-06-18 08:20:00,
2013-06-18 10:34:00,71.0,66.0,29.77,SSE,166,5.0,-999.0,84,-99.99,,,0.00,172,weatherlink.com 1.10,2013-06-18 08:34:00,
2013-06-18 10:50:00,71.1,65.0,29.76,SE,143,3.0,-999.0,82,-99.99,,,0.00,285,weatherlink.com 1.10,2013-06-18 08:50:00,
2013-06-18 11:05:00,72.0,66.0,29.76,SE,139,5.0,-999.0,81,-99.99,,,0.00,301,weatherlink.com 1.10,2013-06-18 09:05:00,
2013-06-18 11:20:00,71.8,66.0,29.76,SSE,161,5.0,-999.0,81,-99.99,,,0.00,209,weatherlink.com 1.10,2013-06-18 09:20:00,
2013-06-18 11:35:00,71.3,66.0,29.76,South,188,7.0,-999.0,83,-99.99,,,0.00,234,weatherlink.com 1.10,2013-06-18 09:35:00,
2013-06-18 11:51:00,71.1,65.0,29.76,SSE,161,5.0,-999.0,82,-99.99,,,0.00,278,weatherlink.com 1.10,2013-06-18 09:51:00,
2013-06-18 12:05:00,71.0,66.0,29.77,SSE,167,9.0,-999.0,83,-99.99,,,0.00,311,weatherlink.com 1.10,2013-06-18 10:05:00,
2013-06-18 12:21:00,71.2,66.0,29.77,South,170,7.0,-999.0,82,-99.99,,,0.00,223,weatherlink.com 1.10,2013-06-18 10:21:00,
2013-06-18 12:36:00,70.7,65.0,29.76,South,176,6.0,-999.0,82,-99.99,,,0.00,294,weatherlink.com 1.10,2013-06-18 10:36:00,
2013-06-18 12:51:00,71.3,65.0,29.76,SSE,163,10.0,-999.0,80,-99.99,,,0.00,357,weatherlink.com 1.10,2013-06-18 10:51:00,
2013-06-18 13:06:00,71.8,66.0,29.77,South,174,14.0,-999.0,81,-99.99,,,0.00,552,weatherlink.com 1.10,2013-06-18 11:06:00,
2013-06-18 13:22:00,71.3,66.0,29.77,South,179,11.0,-999.0,82,-99.99,,,0.00,357,weatherlink.com 1.10,2013-06-18 11:22:00,
2013-06-18 13:37:00,71.6,66.0,29.77,South,180,5.0,-999.0,83,-99.99,,,0.00,359,weatherlink.com 1.10,2013-06-18 11:37:00,
2013-06-18 13:52:00,71.7,66.0,29.77,South,190,6.0,-999.0,83,-99.99,,,0.00,174,weatherlink.com 1.10,2013-06-18 11:52:00,
2013-06-18 14:08:00,72.2,67.0,29.77,South,188,9.0,-999.0,83,-99.99,,,0.00,413,weatherlink.com 1.10,2013-06-18 12:08:00,
2013-06-18 14:22:00,72.5,67.0,29.77,SW,235,10.0,-999.0,82,-99.99,,,0.00,420,weatherlink.com 1.10,2013-06-18 12:22:00,
2013-06-18 14:38:00,73.5,67.0,29.77,WSW,248,5.0,-999.0,81,-99.99,,,0.00,464,weatherlink.com 1.10,2013-06-18 12:38:00,
2013-06-18 14:53:00,73.1,67.0,29.77,SW,215,12.0,-999.0,82,-99.99,,,0.00,541,weatherlink.com 1.10,2013-06-18 12:53:00,
2013-06-18 15:08:00,73.5,67.0,29.77,West,261,7.0,-999.0,81,-99.99,,,0.00,643,weatherlink.com 1.10,2013-06-18 13:08:00,
2013-06-18 15:23:00,74.1,67.0,29.77,SSW,209,4.0,-999.0,79,-99.99,,,0.00,568,weatherlink.com 1.10,2013-06-18 13:23:00,
2013-06-18 15:38:00,74.6,67.0,29.76,SSW,198,5.0,-999.0,77,-99.99,,,0.00,671,weatherlink.com 1.10,2013-06-18 13:38:00,
2013-06-18 15:54:00,74.1,67.0,29.76,SW,219,7.0,-999.0,78,-99.99,,,0.00,684,weatherlink.com 1.10,2013-06-18 13:54:00,
2013-06-18 16:09:00,73.0,67.0,29.76,WSW,238,2.0,-999.0,80,-99.99,,,0.00,450,weatherlink.com 1.10,2013-06-18 14:09:00,
2013-06-18 16:24:00,72.8,66.0,29.76,WSW,242,6.0,-999.0,80,-99.99,,,0.00,287,weatherlink.com 1.10,2013-06-18 14:24:00,
2013-06-18 16:39:00,71.4,65.0,29.76,SW,214,7.0,-999.0,81,-99.99,,,0.00,146,weatherlink.com 1.10,2013-06-18 14:39:00,
2013-06-18 16:54:00,71.0,65.0,29.76,WSW,258,7.0,-999.0,81,-99.99,,,0.00,204,weatherlink.com 1.10,2013-06-18 14:54:00,
2013-06-18 17:10:00,71.4,65.0,29.76,SW,226,5.0,-999.0,81,-99.99,,,0.00,329,weatherlink.com 1.10,2013-06-18 15:10:00,
2013-06-18 17:24:00,71.7,65.0,29.76,WSW,255,7.0,-999.0,79,-99.99,,,0.00,278,weatherlink.com 1.10,2013-06-18 15:24:00,
2013-06-18 17:40:00,71.0,65.0,29.76,West,277,7.0,-999.0,80,-99.99,,,0.00,211,weatherlink.com 1.10,2013-06-18 15:40:00,
2013-06-18 17:55:00,70.7,64.0,29.75,SSW,213,2.0,-999.0,80,-99.99,,,0.00,195,weatherlink.com 1.10,2013-06-18 15:55:00,
2013-06-18 18:10:00,70.7,65.0,29.75,SSW,210,6.0,-999.0,81,-99.99,,,0.00,188,weatherlink.com 1.10,2013-06-18 16:10:00,
2013-06-18 18:26:00,70.5,65.0,29.75,SSW,207,6.0,-999.0,82,-99.99,,,0.00,292,weatherlink.com 1.10,2013-06-18 16:26:00,
2013-06-18 18:41:00,70.7,64.0,29.76,South,180,5.0,-999.0,80,-99.99,,,0.00,432,weatherlink.com 1.10,2013-06-18 16:41:00,
2013-06-18 18:55:00,72.6,65.0,29.75,SSE,154,9.0,-999.0,77,-99.99,,,0.00,489,weatherlink.com 1.10,2013-06-18 16:55:00,
2013-06-18 19:11:00,71.7,64.0,29.76,South,190,9.0,-999.0,77,-99.99,,,0.00,338,weatherlink.com 1.10,2013-06-18 17:11:00,
2013-06-18 19:26:00,71.4,64.0,29.76,SSW,200,10.0,-999.0,78,-99.99,,,0.00,178,weatherlink.com 1.10,2013-06-18 17:26:00,
2013-06-18 19:42:00,70.3,63.0,29.77,SW,228,6.0,-999.0,78,-99.99,,,0.00,91,weatherlink.com 1.10,2013-06-18 17:42:00,
2013-06-18 19:56:00,69.8,63.0,29.78,SSW,202,3.0,-999.0,80,-99.99,,,0.00,23,weatherlink.com 1.10,2013-06-18 17:56:00,
2013-06-18 20:12:00,69.5,63.0,29.78,WSW,250,6.0,-999.0,81,-99.99,,,0.00,28,weatherlink.com 1.10,2013-06-18 18:12:00,
2013-06-18 20:27:00,69.3,63.0,29.78,SW,236,3.0,-999.0,81,-99.99,,,0.00,14,weatherlink.com 1.10,2013-06-18 18:27:00,
2013-06-18 20:42:00,68.9,63.0,29.78,SW,230,5.0,-999.0,81,-99.99,,,0.00,7,weatherlink.com 1.10,2013-06-18 18:42:00,
2013-06-18 20:57:00,68.5,63.0,29.79,WSW,256,4.0,-999.0,81,-99.99,,,0.00,7,weatherlink.com 1.10,2013-06-18 18:57:00,
2013-06-18 21:12:00,68.3,62.0,29.79,SW,235,11.0,-999.0,81,-99.99,,,0.00,7,weatherlink.com 1.10,2013-06-18 19:12:00,
2013-06-18 21:28:00,68.0,62.0,29.79,SSW,197,4.0,-999.0,81,-99.99,,,0.00,0,weatherlink.com 1.10,2013-06-18 19:28:00,
2013-06-18 21:43:00,67.7,62.0,29.80,SSW,205,3.0,-999.0,81,-99.99,,,0.00,0,weatherlink.com 1.10,2013-06-18 19:43:00,
2013-06-18 21:58:00,67.7,62.0,29.80,SW,216,2.0,-999.0,81,-99.99,,,0.00,0,weatherlink.com 1.10,2013-06-18 19:58:00,
2013-06-18 22:13:00,67.6,62.0,29.81,SW,231,5.0,-999.0,82,-99.99,,,0.00,0,weatherlink.com 1.10,2013-06-18 20:13:00,
2013-06-18 22:29:00,67.6,62.0,29.82,SW,224,4.0,-999.0,83,-99.99,,,0.00,0,weatherlink.com 1.10,2013-06-18 20:29:00,
2013-06-18 22:43:00,67.5,62.0,29.83,WSW,239,5.0,-999.0,83,-99.99,,,0.00,0,weatherlink.com 1.10,2013-06-18 20:43:00,
2013-06-18 22:59:00,67.6,62.0,29.83,SW,235,3.0,-999.0,83,-99.99,,,0.00,0,weatherlink.com 1.10,2013-06-18 20:59:00,
2013-06-18 23:14:00,67.4,62.0,29.83,SSW,211,6.0,-999.0,83,-99.99,,,0.00,0,weatherlink.com 1.10,2013-06-18 21:14:00,
2013-06-18 23:30:00,67.3,62.0,29.83,SW,218,6.0,-999.0,82,-99.99,,,0.00,0,weatherlink.com 1.10,2013-06-18 21:30:00,
2013-06-18 23:44:00,66.9,61.0,29.83,WSW,251,6.0,-999.0,81,-99.99,,,0.00,0,weatherlink.com 1.10,2013-06-18 21:44:00,